GEFSCGP_500_meanwind_174.txt.gz
Wind_Speed
10 10 12 13 14 14 15 16 16 16 17 17 18 17 18 18 18 17 17 18 19 19 18 19 19 20 21 21 21 19 19 20 21 21 22 24 25 26 27 27 27 27 28 29
9 10 11 12 12 13 14 15 14 15 17 18 19 18 18 19 19 18 17 17 17 18 19 19 20 19 19 18 18 18 18 19 21 22 23 24 25 27 28 28 28 27 27 28
7 8 10 11 11 11 13 14 14 14 15 16 17 17 17 18 18 18 17 16 16 16 18 18 18 19 19 18 18 19 19 20 21 22 23 25 26 27 27 28 27 27 28 28
6 8 9 10 10 11 12 12 13 13 14 14 16 17 16 17 18 18 16 16 16 17 17 18 18 18 19 19 21 20 20 20 21 22 24 25 25 26 27 28 29 29 29 28
4 6 7 8 9 9 11 12 13 14 16 15 16 17 15 16 16 16 17 17 17 17 18 19 19 18 18 19 20 20 20 20 21 23 24 25 25 26 27 28 28 28 27 28
4 5 7 7 8 9 11 13 15 16 17 18 16 18 16 16 16 16 16 15 15 16 17 18 18 17 19 20 20 20 20 21 22 22 23 24 25 25 26 26 26 26 27 27
6 6 7 8 9 10 10 12 14 15 17 17 17 18 17 17 16 16 15 14 14 16 16 18 17 19 20 20 20 20 20 21 21 22 23 24 24 24 25 25 25 25 26 26
8 8 8 9 9 10 10 12 14 16 16 16 16 18 18 17 16 15 13 13 14 15 17 17 17 18 19 19 19 20 20 21 22 22 23 23 23 23 23 25 25 25 25 24
10 10 10 10 10 10 11 12 14 16 16 16 16 17 18 18 17 16 15 15 16 17 16 17 17 18 18 17 18 19 20 20 21 21 22 22 22 23 24 25 24 24 23 22
11 10 10 12 12 12 13 14 15 16 17 17 16 16 16 16 17 17 16 16 16 17 18 17 17 18 18 17 17 18 19 19 20 20 20 21 21 23 24 24 23 23 23 23
14 13 11 13 15 14 15 16 17 18 19 19 19 17 17 17 17 16 17 17 17 18 18 17 17 18 18 17 17 18 18 19 19 20 20 20 21 23 23 23 22 22 22 22
16 15 13 13 15 15 16 17 18 19 19 20 22 20 18 19 18 17 17 17 17 17 17 16 16 17 17 16 16 17 17 18 19 20 20 20 22 22 23 22 22 22 22 22
16 15 14 12 14 16 17 18 19 20 20 21 21 21 19 19 19 19 18 17 16 16 16 16 15 15 16 16 17 17 17 18 18 19 20 20 21 22 22 21 22 21 21 21
16 16 16 15 14 15 17 18 19 21 21 21 20 20 19 19 19 19 18 17 17 17 16 15 16 16 16 17 17 17 17 17 18 19 19 19 20 21 21 21 21 21 21 22
17 18 18 16 15 16 17 17 19 19 19 20 19 19 19 19 19 18 18 18 17 17 16 16 17 16 16 17 17 16 16 17 18 18 19 19 20 21 21 21 20 21 21 21
18 19 19 17 17 18 17 17 17 17 18 18 19 19 18 18 17 17 18 17 16 16 16 16 17 16 16 17 17 16 16 17 17 18 19 19 20 21 21 21 20 20 20 20
18 19 19 18 18 18 17 15 16 17 16 17 18 18 18 17 17 17 17 17 16 16 16 17 16 16 16 16 16 15 16 17 16 17 18 19 19 20 20 20 20 19 20 20
17 18 18 18 17 17 15 16 17 16 16 16 17 17 17 16 17 17 17 18 18 17 15 15 15 15 15 15 15 16 16 16 17 18 18 18 18 19 20 19 19 18 18 19
17 18 18 18 17 16 16 16 16 17 16 17 16 16 16 16 16 17 17 17 17 15 15 14 14 14 14 14 15 14 14 15 16 16 17 16 17 18 18 17 17 17 18 19
18 18 17 17 17 17 16 16 15 16 16 16 16 16 16 16 16 15 15 15 15 14 13 13 13 12 12 12 12 13 14 14 15 15 15 15 16 16 16 16 16 17 17 17
17 17 17 17 17 15 14 14 15 16 16 16 15 15 15 16 15 15 14 14 14 13 12 12 11 11 11 12 12 13 13 14 14 14 14 14 15 16 16 15 16 17 16 16
17 18 18 17 16 13 14 14 15 15 15 15 15 15 14 13 13 13 13 13 13 12 11 11 10 11 11 11 12 12 12 13 13 13 13 14 15 15 15 15 15 15 16 15
16 17 17 16 14 13 13 13 14 14 14 14 14 14 13 12 11 11 12 12 11 10 10 10 10 9 10 10 9 10 11 12 12 12 12 12 14 13 14 14 14 15 16 15
15 15 15 14 13 14 14 13 13 13 13 12 12 11 11 11 10 10 10 9 9 8 8 8 8 9 9 8 8 9 11 11 12 11 11 12 13 13 13 14 15 15 16 15
15 15 14 14 13 13 13 13 13 12 11 10 9 9 8 8 8 7 7 7 7 7 7 7 7 7 7 7 8 9 9 10 10 11 11 11 12 13 14 14 15 15 15 15
15 14 14 12 11 11 12 11 10 10 9 8 7 6 6 5 5 5 5 5 5 6 6 6 6 5 6 6 7 7 8 8 9 10 11 11 12 13 15 15 15 15 15 16

GEFSCGP_500_meanwind_180.txt.gz
Wind_Speed
9 10 11 13 14 15 16 17 17 19 21 21 21 22 22 20 20 20 20 20 20 21 22 22 22 21 21 20 20 20 19 19 20 22 22 22 21 22 22 23 23 24 25 26
8 10 11 12 13 14 15 16 17 18 19 20 20 20 20 20 19 19 19 20 20 20 21 20 20 20 19 19 19 19 19 20 20 21 22 21 21 22 22 23 24 24 25 26
8 8 10 11 12 13 14 16 17 18 18 19 20 19 19 19 20 19 19 19 20 21 21 19 19 20 20 20 20 20 20 21 21 21 20 20 21 22 23 23 24 24 25 26
7 8 9 11 12 14 14 15 17 18 18 19 19 20 18 19 19 19 19 20 20 20 20 20 19 19 20 20 21 21 21 21 21 21 20 20 21 21 23 23 24 24 25 26
8 8 9 10 12 13 14 14 15 17 18 18 18 19 17 18 18 19 19 20 19 19 20 20 19 20 20 21 22 22 21 21 22 22 21 21 21 22 23 23 23 23 24 25
8 9 9 10 12 13 14 15 15 16 18 18 17 18 17 17 17 18 19 19 19 19 19 18 19 19 20 22 22 22 22 22 22 22 21 21 22 22 23 22 22 23 24 25
9 10 10 10 12 13 13 14 15 15 16 16 17 18 16 16 17 17 17 17 18 18 18 18 19 20 21 21 21 22 21 22 22 21 20 21 22 22 23 22 22 23 23 24
11 11 10 11 12 13 13 13 14 16 16 15 15 16 15 15 15 16 17 18 18 18 18 19 19 20 21 21 21 21 22 22 22 21 21 22 21 21 22 22 22 23 23 24
12 12 12 12 11 12 12 13 14 16 17 17 16 15 13 13 15 16 17 18 19 19 19 19 18 19 20 21 21 22 22 21 20 20 21 21 21 21 22 22 22 23 24 25
13 14 13 14 13 13 13 14 15 17 18 18 16 15 14 14 16 16 17 18 19 19 19 20 19 20 20 20 20 21 21 20 20 21 21 22 21 21 21 21 22 23 23 24
14 15 14 14 14 14 14 15 16 17 18 19 19 16 15 16 16 17 18 19 19 20 21 20 19 19 19 19 19 19 19 18 19 20 21 21 20 21 21 21 22 22 23 23
16 16 16 15 15 14 13 14 16 17 18 19 19 18 17 17 17 17 19 20 20 21 21 20 19 19 19 18 18 18 18 18 18 19 19 19 19 19 20 21 22 22 22 23
18 18 17 16 16 16 16 16 17 17 18 19 20 19 19 18 18 19 20 20 20 20 20 20 19 18 17 17 16 17 17 17 17 17 18 19 20 19 20 21 21 21 21 22
19 19 19 19 18 19 18 18 19 19 20 20 20 20 19 18 18 19 20 19 18 18 18 18 17 17 16 16 16 17 17 17 17 18 17 17 19 20 20 20 20 21 21 22
20 20 20 20 20 20 20 20 20 21 20 20 20 20 19 18 18 18 18 17 17 16 16 16 16 16 16 16 16 17 17 16 16 16 16 18 18 18 19 19 19 20 21 21
20 20 20 20 20 21 21 21 21 21 20 19 19 18 18 18 17 17 17 17 16 16 15 15 14 15 16 16 16 16 16 15 15 15 16 17 18 18 18 19 19 20 21 21
19 19 19 18 19 20 20 18 18 18 18 18 18 18 18 18 17 17 16 17 17 16 15 15 15 15 15 15 15 15 15 15 15 16 16 18 17 17 19 19 20 20 20 21
18 19 18 18 18 19 16 15 15 15 16 16 17 17 17 18 17 17 17 17 17 16 16 16 16 16 16 16 15 15 15 15 15 16 16 17 17 18 19 19 19 19 19 19
17 17 18 18 18 17 15 15 15 15 15 16 17 17 17 16 16 16 16 16 16 16 16 16 16 15 15 14 14 14 15 14 15 15 16 16 16 17 17 17 18 18 19 20
16 17 17 17 17 17 16 16 15 15 15 16 17 17 16 15 15 15 15 15 15 15 15 15 15 14 14 13 13 13 13 14 14 14 15 16 16 16 17 19 19 18 19 20
16 16 16 16 16 16 15 16 16 16 16 16 17 16 15 14 15 15 14 14 13 13 13 13 13 12 12 12 12 12 13 13 13 14 15 14 15 16 17 18 19 19 19 18
16 16 16 16 16 15 16 16 16 16 16 16 15 14 14 14 14 14 13 12 12 12 12 11 11 10 10 11 11 12 12 12 12 12 13 14 15 16 17 18 18 18 17 18
16 15 15 15 14 15 15 15 16 17 16 15 14 14 14 14 14 13 12 12 12 11 10 10 9 10 10 11 11 11 11 10 11 12 13 13 14 16 16 17 17 17 17 18
16 15 15 15 14 15 14 15 16 15 14 14 14 14 13 14 13 12 11 10 10 10 9 9 9 10 10 10 10 10 9 10 10 11 12 13 14 15 15 15 15 16 17 17
15 15 15 14 14 14 14 14 14 13 13 13 13 13 12 12 11 10 9 8 8 8 8 8 8 8 8 8 9 9 9 9 9 10 11 12 13 14 15 16 16 17 17 18
14 14 14 13 12 13 13 13 13 12 11 11 11 11 9 9 8 7 7 7 6 6 6 7 6 7 7 8 8 7 8 8 9 10 11 12 13 14 15 15 16 16 18 19

GEFSCGP_500_meanwind_186.txt.gz
Wind_Speed
4 5 7 9 9 11 11 12 14 15 16 17 18 18 18 18 18 18 19 19 19 20 21 20 20 20 21 21 22 23 23 24 24 24 24 24 25 24 25 25 24 25 26 26
4 6 8 9 10 11 11 12 14 15 17 16 17 17 18 18 18 18 19 18 19 19 19 19 19 20 21 22 23 23 23 24 24 25 24 24 24 25 27 26 25 25 25 26
5 6 7 9 10 12 12 13 14 15 15 16 17 16 16 17 18 18 18 18 18 19 19 19 19 20 21 22 23 24 24 24 24 25 24 25 26 26 25 26 25 26 25 25
6 6 7 8 10 11 11 13 13 14 14 14 16 14 15 16 17 17 18 18 18 18 19 19 20 21 22 23 23 24 24 24 24 25 26 26 27 27 27 27 26 26 26 26
7 7 7 8 9 10 11 12 13 13 13 13 14 14 14 15 16 17 17 18 18 18 18 19 20 21 22 22 23 24 24 25 25 25 26 27 27 27 28 27 26 26 26 25
9 9 9 10 10 10 11 11 12 11 11 11 12 12 12 14 15 16 17 17 17 18 18 18 20 21 22 22 23 24 25 25 26 26 26 27 27 27 27 27 26 26 26 25
10 10 10 10 10 10 9 9 9 9 9 11 12 12 13 14 15 16 16 17 17 18 18 18 19 20 22 23 24 25 25 25 26 26 26 26 27 27 28 28 26 26 26 25
10 11 11 10 9 10 10 9 9 10 11 11 12 13 14 15 16 16 16 16 17 18 18 19 21 21 21 22 23 24 24 25 25 25 26 26 26 27 27 26 25 25 26 25
11 12 12 11 11 11 11 10 10 11 11 12 12 13 14 15 15 16 16 16 17 18 19 20 21 21 21 22 22 22 23 24 25 25 25 25 26 27 26 25 25 25 25 25
12 12 13 12 11 10 10 10 11 11 12 12 12 13 14 14 15 16 18 17 18 18 18 19 20 20 20 21 22 22 23 23 24 24 24 24 24 25 25 24 24 24 24 24
14 13 13 13 11 11 10 11 11 12 12 13 14 14 16 16 17 17 18 17 17 17 18 19 19 19 20 21 22 22 22 22 23 23 23 23 24 24 23 22 23 23 24 24
14 14 13 12 11 11 12 12 12 13 14 13 15 16 16 15 15 16 16 16 16 17 18 18 19 19 20 21 21 22 22 22 22 23 22 22 22 22 21 21 22 22 23 24
14 14 13 12 12 13 13 13 13 14 15 15 15 16 15 15 15 16 16 15 16 18 18 18 19 19 20 21 21 21 21 21 21 21 21 21 20 21 20 19 20 20 21 22
14 14 13 13 14 14 14 15 14 14 15 15 14 15 15 16 16 17 16 16 17 17 18 18 19 20 20 20 20 20 19 19 20 20 19 19 19 19 18 18 19 19 20 21
15 15 15 15 15 15 15 15 15 15 15 15 14 14 15 15 16 16 16 16 17 17 17 17 18 19 19 18 18 18 18 17 18 18 18 17 18 18 18 18 18 19 20 21
15 15 15 15 15 15 15 16 16 15 15 14 14 14 14 14 15 15 16 16 17 17 17 17 17 17 17 17 16 16 16 17 17 17 17 17 18 18 18 17 18 18 19 20
14 14 14 15 15 16 16 15 15 14 13 13 12 13 14 14 14 15 16 17 16 16 15 15 16 16 16 16 16 15 15 16 16 16 16 16 17 17 17 17 17 17 18 19
13 13 13 13 14 14 14 13 13 12 12 12 12 13 13 13 14 15 16 16 16 16 15 15 15 15 15 15 14 14 14 14 14 14 14 16 16 16 16 17 17 17 17 18
12 12 12 12 12 12 13 12 12 11 11 12 11 12 12 13 14 15 16 16 15 15 15 15 15 14 15 14 14 14 14 14 13 13 13 14 15 15 16 16 17 17 17 18
11 11 11 11 12 12 14 13 12 12 12 12 12 12 13 14 15 15 15 15 15 15 15 14 14 14 15 14 14 14 13 13 13 13 13 14 14 15 15 15 16 15 16 16
12 11 12 12 13 13 13 13 12 12 12 12 12 13 13 13 13 14 14 14 14 14 13 13 12 13 13 13 13 13 12 11 11 12 12 12 14 14 14 14 15 15 15 16
12 12 12 13 13 13 12 12 13 12 12 12 13 13 13 13 13 13 13 13 13 12 12 11 11 11 11 11 12 11 10 10 10 10 12 13 14 14 13 14 14 15 15 15
13 12 12 13 13 13 13 13 12 12 12 12 12 13 13 12 12 10 11 12 11 10 10 10 10 10 10 9 9 8 8 9 9 10 12 12 13 13 13 14 14 14 15 15
14 13 13 13 13 12 12 12 11 12 12 12 12 12 12 11 10 10 10 10 10 9 9 9 10 9 9 8 7 7 8 9 9 11 12 12 12 13 13 13 14 14 15 15
14 14 13 13 13 12 12 12 12 12 12 12 11 11 10 10 9 9 9 8 8 8 8 8 8 7 7 7 7 7 8 9 9 10 11 12 12 12 12 13 14 14 15 15
14 13 13 14 14 13 12 12 12 12 11 10 9 9 8 8 7 8 7 6 6 7 8 8 8 7 7 7 7 7 8 8 9 10 11 12 12 12 13 14 14 15 15 16

GEFSCGP_500_meanwind_192.txt.gz
Wind_Speed
4 4 6 6 6 7 9 11 12 13 16 17 18 19 17 19 20 20 20 20 20 21 21 21 20 21 21 20 20 21 22 23 24 25 25 27 27 28 29 28 28 29 29 29
4 6 8 8 10 11 10 12 13 14 15 18 17 16 14 17 20 19 19 20 20 21 21 21 20 21 21 21 22 22 23 24 25 26 27 28 28 29 29 30 29 30 30 30
6 9 10 11 13 12 12 13 13 15 14 14 15 16 15 16 18 18 19 20 21 21 21 21 20 21 21 22 22 24 24 25 26 27 28 29 29 30 30 30 31 31 31 30
7 10 12 12 13 13 14 15 15 14 11 13 15 16 14 14 17 19 18 19 19 19 20 21 21 21 22 23 23 24 26 26 27 28 29 30 31 31 30 30 31 31 30 30
9 10 11 12 12 13 14 15 16 15 13 13 12 14 15 15 17 18 18 18 18 18 19 19 20 21 23 23 23 25 26 27 28 29 30 31 31 31 30 30 30 30 30 29
10 10 10 11 12 12 13 14 13 11 11 12 9 12 14 16 18 18 18 20 19 19 19 19 20 22 22 23 24 25 26 27 28 29 29 30 30 30 29 28 29 28 28 29
10 11 10 10 10 11 11 11 10 10 10 10 10 13 15 16 17 17 19 19 19 20 21 20 21 23 24 24 25 26 26 27 28 28 28 28 29 29 29 28 28 28 28 28
10 10 11 11 11 10 10 10 10 12 13 12 12 14 15 14 17 19 19 19 18 20 20 20 21 23 24 25 25 26 26 27 27 27 27 27 27 28 27 28 28 28 28 28
12 10 10 9 10 10 9 9 12 13 13 13 12 13 15 17 18 17 18 18 18 19 19 21 22 22 23 24 24 24 25 25 26 26 26 26 27 27 27 27 27 28 28 28
12 12 10 8 8 10 10 12 13 11 12 12 12 13 15 16 18 19 18 19 19 20 20 21 22 22 23 23 24 24 23 24 24 25 26 26 26 26 27 27 27 27 27 26
13 12 11 9 9 9 9 11 12 12 12 14 14 14 13 15 16 17 18 18 19 20 20 20 21 21 22 22 22 22 23 23 24 25 25 26 25 25 25 26 26 25 26 25
14 14 13 10 11 10 10 10 11 13 14 14 16 17 15 15 15 17 17 18 19 20 19 19 20 21 21 21 21 22 23 23 23 24 24 24 24 25 25 25 25 25 26 25
14 14 13 12 11 10 10 10 10 12 14 15 18 17 16 16 16 17 17 18 19 21 20 19 20 20 20 21 22 22 22 22 23 23 24 23 24 24 24 24 24 24 25 25
15 14 13 12 11 12 12 12 12 14 15 15 16 17 17 16 15 17 19 19 19 19 19 20 20 20 21 21 22 22 22 22 23 23 23 23 23 22 22 22 22 23 23 24
14 14 12 11 11 12 14 14 13 14 14 15 16 17 17 17 16 18 18 19 18 18 19 19 20 21 21 22 21 21 21 22 22 22 22 21 21 20 20 20 21 22 22 22
13 12 10 10 11 12 13 13 13 14 16 17 17 16 16 15 16 18 17 18 18 18 19 19 19 20 20 21 20 20 21 21 21 21 20 19 18 19 19 19 19 20 21 21
13 12 11 10 10 11 12 12 13 14 15 16 16 16 17 15 14 16 17 18 19 19 18 18 18 19 19 19 19 19 19 19 19 18 18 17 17 17 17 17 18 19 19 20
14 13 12 12 13 14 13 14 14 14 14 15 16 16 15 14 14 15 16 17 18 18 17 17 18 19 19 18 18 18 19 18 17 16 15 16 15 15 16 16 17 18 18 19
14 13 13 12 12 13 13 14 14 13 14 14 15 14 13 13 14 15 16 17 17 17 17 18 18 17 17 17 18 17 17 17 16 15 15 14 14 15 15 16 17 17 18 18
14 13 13 13 13 13 13 15 14 14 14 14 13 12 12 13 13 14 15 15 16 16 17 17 16 16 16 17 17 16 15 15 15 15 15 14 14 15 15 16 16 16 17 17
14 14 14 15 14 14 15 15 14 15 14 14 14 13 14 14 14 14 14 15 16 16 16 15 15 15 15 16 16 15 14 14 14 14 14 14 14 14 15 15 15 16 16 17
15 15 15 15 15 15 15 16 16 16 15 15 14 14 13 13 12 13 14 15 15 15 15 14 13 14 14 14 14 13 13 14 14 13 13 14 14 14 15 15 16 16 17 18
16 16 16 16 16 16 16 17 17 15 15 15 14 13 12 12 12 13 13 14 14 13 13 13 12 12 12 11 12 12 13 13 13 12 13 13 14 15 16 17 17 17 18 18
18 17 17 17 16 17 17 17 17 16 15 14 13 13 12 12 12 12 12 12 11 11 12 12 11 11 10 10 11 12 12 12 12 12 13 13 15 15 16 17 18 18 18 19
17 18 18 17 17 17 17 17 17 17 15 14 14 14 14 13 12 12 11 11 11 12 11 10 9 9 9 10 10 11 11 10 10 12 13 14 15 16 17 18 18 19 20 20
17 18 19 19 18 18 17 17 16 16 16 15 15 14 14 12 11 11 11 10 10 10 9 8 8 8 9 9 10 11 11 10 10 12 13 14 15 16 18 18 18 19 20 20

GEFSCGP_500_meanwind_198.txt.gz
Wind_Speed
2 2 3 4 5 7 9 10 11 11 12 14 15 15 15 15 16 17 18 19 19 19 19 18 19 20 20 19 20 21 22 22 22 22 23 23 23 24 25 27 27 27 26 25
2 3 5 6 7 9 10 11 12 13 13 14 14 15 14 15 16 17 17 17 17 18 17 17 19 19 19 19 18 21 22 22 22 23 23 23 25 25 26 28 29 27 26 27
4 5 6 7 8 10 12 13 14 15 15 15 15 14 14 14 15 15 16 16 16 15 14 16 18 17 19 20 21 20 21 22 22 23 24 25 25 26 28 28 28 29 28 28
5 6 8 9 9 10 11 14 15 15 15 14 13 12 11 12 14 15 16 16 16 16 16 15 17 18 19 20 20 21 21 22 23 24 24 25 26 27 28 28 27 28 29 28
7 7 9 10 10 12 13 14 14 14 14 13 11 12 12 13 13 14 15 15 15 15 16 16 17 18 18 19 20 21 21 21 23 25 26 26 27 27 27 27 27 27 27 27
7 7 9 10 11 12 13 13 13 13 12 13 13 13 13 12 13 13 13 14 14 15 15 16 17 18 18 18 20 20 20 22 24 25 25 26 27 27 27 27 27 26 27 27
7 7 8 10 10 10 12 13 13 13 11 12 13 14 13 12 12 12 12 13 13 13 14 16 17 17 17 18 19 21 22 23 24 25 25 26 26 27 27 26 26 26 27 27
8 7 8 9 10 11 12 12 13 12 12 11 12 13 13 12 12 12 12 12 11 13 14 15 16 17 18 19 20 22 23 23 23 24 25 25 25 25 25 25 25 26 26 27
9 8 8 9 9 10 11 11 11 12 12 12 11 11 12 11 10 10 10 11 12 13 15 15 15 17 18 19 20 21 21 21 22 23 24 23 24 24 24 25 25 25 25 25
10 10 9 9 8 10 10 10 11 11 12 11 11 11 10 8 9 11 10 11 12 13 13 14 15 17 17 18 18 18 19 20 21 22 23 23 23 23 24 24 24 24 24 23
10 10 10 10 9 9 8 9 10 11 11 12 12 11 9 9 11 10 10 11 12 12 12 14 16 16 16 17 17 18 18 18 20 20 21 21 22 23 23 23 23 23 23 23
10 9 10 9 9 9 9 10 10 10 10 11 12 12 10 10 11 11 11 13 14 12 13 14 15 15 15 16 17 18 17 17 18 20 21 21 21 21 21 22 22 22 23 23
9 9 9 8 7 7 7 8 9 10 11 13 13 12 11 11 11 11 13 13 12 12 13 14 15 14 15 16 18 18 17 17 18 19 20 20 20 20 20 21 22 22 21 21
11 9 8 8 7 7 8 8 9 11 13 12 12 12 11 11 11 10 11 12 12 13 13 14 15 15 16 17 18 18 18 17 18 19 19 19 19 19 20 20 20 20 20 21
12 9 8 9 9 10 11 11 11 13 13 13 13 13 12 11 11 11 11 11 11 12 13 14 14 15 15 16 16 17 17 18 18 19 19 19 19 19 19 19 19 19 19 20
11 10 9 9 10 10 11 11 12 13 14 13 13 13 12 11 10 10 11 11 12 13 12 13 13 14 15 15 16 16 17 18 18 18 18 18 18 18 19 19 18 18 18 19
11 10 9 9 10 10 10 11 12 13 13 13 13 12 12 11 10 11 11 11 12 11 12 12 13 14 14 15 16 16 17 18 18 17 17 18 18 18 18 17 17 17 18 18
11 11 10 11 11 11 11 12 13 14 14 14 14 13 12 12 10 11 11 11 11 11 11 12 13 14 14 14 15 16 17 17 16 16 17 17 17 16 16 16 16 16 17 17
12 11 12 13 12 12 11 12 12 13 14 14 13 13 13 13 11 10 11 11 11 11 11 12 13 13 13 13 15 16 16 15 15 16 16 16 16 16 15 15 15 15 15 17
12 13 14 14 14 13 13 14 13 13 14 13 13 13 13 12 11 10 10 10 11 11 12 12 12 12 13 14 15 15 14 14 14 14 15 15 16 15 15 15 15 16 17 17
13 14 15 16 16 15 15 15 14 13 14 13 13 14 13 13 12 11 11 11 11 11 11 12 12 13 14 14 13 13 13 13 13 14 14 15 15 15 15 15 15 16 17 17
15 16 16 17 17 16 16 15 14 14 15 15 15 14 13 13 13 12 11 11 10 11 12 12 12 13 13 13 12 12 12 12 12 13 14 15 14 14 15 15 15 16 17 18
15 16 17 17 17 16 15 15 14 15 15 15 14 13 13 13 13 13 12 11 10 11 11 11 12 12 12 11 11 11 11 11 12 13 15 15 14 14 15 16 16 17 18 19
15 16 16 16 16 15 15 14 14 15 15 15 14 13 13 12 13 12 11 11 11 10 10 10 11 11 11 11 10 11 10 10 12 13 14 14 14 15 16 16 17 17 18 20
16 15 15 15 16 15 14 14 15 15 15 15 14 13 13 12 12 11 10 11 10 9 9 9 9 10 10 10 10 10 10 10 12 14 14 14 15 16 17 17 17 18 19 20
16 15 16 16 15 15 14 14 15 15 14 14 13 12 12 12 12 11 10 9 9 8 8 9 9 9 9 9 9 9 9 10 11 13 14 14 15 16 17 18 18 19 20 21

GEFSCGP_500_meanwind_204.txt.gz
Wind_Speed
5 6 8 9 10 11 13 14 15 15 15 17 17 18 17 18 18 18 18 19 20 19 20 21 22 22 22 23 23 23 23 23 23 24 24 24 25 26 27 27 27 28 28 29
5 6 7 8 10 12 12 13 13 13 14 16 16 17 17 17 16 16 17 17 18 18 19 20 21 21 22 22 22 23 23 24 23 23 23 24 25 25 26 27 29 30 30 30
6 6 8 9 11 12 12 12 12 13 14 16 17 15 15 15 15 15 16 16 17 17 18 19 19 19 20 20 21 22 23 23 23 23 23 24 24 24 25 27 29 30 30 30
7 7 9 10 11 12 11 11 12 13 14 14 15 15 13 14 14 14 15 15 15 16 17 18 18 18 19 20 21 20 20 21 21 22 23 24 25 26 27 28 29 30 30 30
7 8 9 9 11 12 12 11 11 12 12 13 13 13 12 12 13 14 14 14 14 15 16 17 17 18 18 19 19 19 20 21 21 22 24 25 25 26 27 28 29 30 29 29
9 9 10 10 10 12 12 12 12 12 12 12 13 13 12 13 13 14 14 14 14 14 15 16 16 16 17 17 18 19 20 20 21 22 23 24 25 26 27 27 28 28 27 28
8 8 8 9 10 11 12 11 12 11 10 10 10 11 11 12 13 13 14 14 14 15 15 15 16 17 17 17 18 19 19 20 21 22 22 23 25 25 26 27 27 26 27 28
6 6 7 9 10 10 10 10 11 12 11 10 9 9 10 10 11 13 13 13 13 14 14 15 16 17 17 17 18 18 19 19 20 20 22 23 24 24 25 25 26 26 27 27
7 7 9 10 10 10 9 9 9 11 10 10 10 10 10 10 10 11 10 10 12 13 14 14 15 16 16 17 18 19 19 19 19 20 21 22 22 22 23 23 24 25 25 26
8 8 9 10 10 9 9 9 9 9 10 10 10 11 11 10 10 10 10 10 11 12 13 14 15 15 16 17 18 17 17 17 17 18 20 20 21 22 21 22 23 24 24 24
9 9 8 9 9 9 10 10 10 10 10 11 11 10 11 11 11 11 10 10 11 12 13 13 14 14 15 15 15 15 15 16 16 17 19 20 21 20 20 21 21 22 23 23
9 8 8 8 8 10 11 11 11 11 11 10 10 9 10 10 10 9 9 10 11 12 12 12 12 12 13 13 14 15 15 15 16 17 18 19 19 19 20 20 21 22 22 22
9 9 8 9 9 10 11 11 12 12 11 10 10 10 10 9 9 8 9 10 10 11 11 11 11 11 13 13 14 15 15 16 16 17 17 18 18 18 19 20 20 21 22 21
9 8 9 10 10 10 11 12 13 13 12 11 11 11 11 10 10 10 10 10 11 11 11 11 12 12 12 12 13 13 14 15 16 16 17 17 17 18 18 19 19 20 20 21
9 8 9 9 10 11 13 13 13 12 13 13 12 12 12 12 12 11 10 10 10 10 10 10 11 11 12 12 13 14 15 15 15 16 17 18 18 17 18 18 19 19 20 20
10 10 10 9 10 11 12 13 13 13 12 12 12 12 12 12 13 12 11 11 10 10 9 10 11 11 11 12 13 14 14 15 16 17 18 18 17 17 17 18 18 19 19 19
11 11 11 11 11 12 12 13 14 14 13 13 13 13 13 13 12 12 12 11 11 10 10 11 10 11 12 13 14 14 14 15 16 17 18 17 17 18 17 18 18 18 18 19
12 12 12 12 13 13 14 14 15 14 15 15 14 14 14 14 13 13 12 12 11 11 11 11 11 12 13 13 13 14 15 15 16 17 17 17 18 18 19 19 18 18 18 18
12 12 13 13 14 14 15 15 15 15 15 15 14 14 14 14 14 13 13 12 12 11 11 12 12 12 12 12 13 14 15 15 16 17 17 17 18 18 18 18 18 18 18 18
12 13 14 15 15 15 16 16 16 16 15 14 14 15 15 14 14 13 13 13 13 12 12 12 12 12 12 12 13 13 14 15 16 17 17 17 17 17 18 18 18 18 18 18
14 15 15 16 16 16 17 17 17 16 15 15 15 15 15 15 14 14 14 14 13 13 11 11 11 12 12 11 11 12 13 15 16 16 17 17 17 17 17 17 18 18 18 19
16 16 16 17 17 17 18 18 17 16 16 16 15 15 16 16 15 15 15 14 13 13 12 11 11 11 11 11 11 12 13 15 15 16 16 16 16 16 17 18 19 19 19 19
17 17 18 18 18 18 18 18 17 16 15 15 16 16 16 16 15 14 13 13 12 12 12 11 11 11 11 11 11 11 13 14 15 16 16 16 16 17 17 18 19 19 20 20
18 18 18 19 19 19 18 18 17 16 15 15 15 15 15 16 14 12 12 12 12 12 11 11 11 11 10 10 11 12 13 14 14 15 15 15 16 17 17 18 19 20 20 21
19 19 19 19 19 19 17 17 17 16 14 14 14 15 14 13 12 12 12 11 11 11 10 9 9 10 10 10 11 12 13 13 13 13 13 14 15 16 17 19 20 20 20 21
19 20 20 20 19 18 17 17 16 15 15 14 13 13 13 13 12 11 10 10 9 9 8 8 8 9 10 10 11 12 12 12 12 12 13 14 15 16 17 18 19 20 21 22

GEFSCGP_500_meanwind_210.txt.gz
Wind_Speed
4 4 6 7 8 10 11 11 12 13 14 14 15 15 15 16 16 17 18 18 18 18 18 20 21 22 23 22 22 23 22 23 23 23 24 24 25 25 26 26 26 27 27 28
5 6 7 7 8 9 10 11 11 12 13 13 13 14 16 16 16 16 16 16 16 17 18 18 20 20 21 22 22 21 22 22 22 22 23 23 24 25 26 26 26 27 27 28
5 6 6 7 7 8 9 10 12 13 13 13 13 13 14 15 16 16 15 14 14 15 16 17 18 19 20 20 21 22 22 22 22 22 22 22 23 24 25 26 26 26 27 27
4 5 6 6 7 7 8 10 11 11 11 11 11 11 12 13 13 13 13 14 14 14 14 15 16 17 18 18 19 20 20 21 21 22 22 22 23 24 24 25 25 25 25 26
4 5 6 5 6 7 7 8 8 9 9 10 10 10 10 11 11 11 12 13 13 14 14 14 15 16 17 18 18 19 20 20 20 20 21 22 23 24 24 25 25 26 25 25
5 6 7 7 6 5 6 6 7 8 8 8 9 8 9 11 11 11 11 11 11 12 13 14 15 16 16 17 17 18 18 19 19 20 21 22 23 24 24 24 26 26 26 26
6 6 7 7 7 6 5 4 5 6 6 8 9 8 10 10 10 10 10 10 10 10 11 11 12 14 15 16 16 16 17 18 19 20 21 21 22 23 24 24 25 25 25 25
5 6 6 7 7 6 5 4 4 5 6 7 7 7 8 9 9 10 11 10 10 10 11 11 12 13 13 15 15 15 16 17 17 19 19 20 21 22 22 23 24 24 24 24
5 5 6 7 7 7 7 6 5 5 6 5 5 6 8 9 9 9 9 9 9 10 10 11 11 12 13 14 14 14 15 15 16 17 18 19 20 21 21 22 22 22 23 23
5 6 6 7 7 7 7 7 6 5 5 5 6 7 7 9 9 8 8 9 10 10 9 10 10 12 13 13 13 13 14 15 16 16 17 18 19 20 20 20 20 21 22 22
6 7 7 7 7 7 8 7 7 6 5 6 6 8 9 9 8 8 8 9 10 10 10 10 11 12 13 13 13 13 14 14 15 16 17 18 18 18 19 19 20 20 21 22
6 6 7 7 7 8 8 8 7 7 8 7 7 9 9 9 9 9 9 10 10 9 9 10 11 12 13 13 14 14 14 14 15 15 16 16 17 17 19 20 20 21 22 22
7 7 8 9 9 9 9 9 8 8 7 8 9 10 11 10 10 11 11 11 11 9 9 10 10 11 12 13 13 13 13 13 14 15 15 16 17 18 19 20 20 20 21 21
7 8 7 7 8 9 9 9 9 8 8 9 10 11 12 12 11 11 11 11 11 10 10 10 10 10 11 12 12 12 12 13 13 14 15 15 17 18 19 19 20 20 21 21
8 8 8 8 8 9 9 9 10 9 9 9 10 11 12 12 12 11 11 11 11 11 11 9 10 11 12 12 12 12 12 13 13 14 14 15 17 18 19 19 20 19 20 20
9 8 8 8 9 10 10 10 11 11 10 11 11 12 12 12 12 12 12 12 12 12 11 11 11 12 12 12 12 12 12 12 12 13 14 16 18 19 20 19 19 19 19 20
10 9 9 9 10 11 11 11 11 11 10 12 12 12 12 13 13 13 13 13 13 12 12 11 11 11 12 13 13 12 12 12 13 13 15 16 17 19 19 18 18 19 19 19
10 9 9 9 10 11 12 12 12 13 12 13 13 13 13 13 13 13 13 13 13 13 12 12 12 12 12 13 12 12 12 12 13 14 15 17 18 19 18 18 18 18 18 19
10 10 11 11 11 12 13 14 14 15 15 14 14 14 14 13 13 13 13 13 12 12 12 12 12 13 13 12 12 12 12 12 13 14 15 17 17 18 18 18 17 17 17 18
11 12 12 12 13 14 15 15 15 16 16 15 14 14 14 13 13 13 13 12 12 12 11 11 11 11 11 11 11 11 12 13 14 14 15 16 16 17 18 17 17 18 18 18
13 13 13 14 14 15 16 16 15 16 16 15 14 14 13 13 13 13 12 12 11 11 11 10 10 10 10 10 10 11 11 12 13 14 15 15 15 16 17 16 17 17 18 19
15 15 15 15 15 16 16 16 16 15 15 14 13 13 13 12 12 13 12 12 11 11 11 11 10 10 10 9 10 10 11 11 12 13 14 15 15 16 16 16 17 18 19 19
16 15 15 15 15 16 16 16 16 15 14 14 13 13 13 13 13 13 13 12 11 11 11 11 10 10 10 9 9 10 10 11 12 13 14 14 15 16 16 16 17 18 19 19
16 15 15 15 15 16 17 16 16 15 15 14 13 13 13 13 13 13 12 12 11 11 10 10 9 9 9 9 9 10 10 11 11 12 13 14 15 15 15 16 17 18 19 20
17 17 16 16 16 17 17 17 16 15 14 13 13 13 13 13 13 12 11 12 11 10 9 8 8 8 8 8 9 10 10 10 10 11 13 13 14 15 15 16 17 18 19 20
19 19 18 17 17 17 17 16 16 15 14 13 13 13 14 13 12 11 11 11 10 9 8 7 7 7 7 8 8 8 8 8 10 11 12 12 13 14 14 15 17 18 19 20

GEFSCGP_500_meanwind_216.txt.gz
Wind_Speed
3 4 5 6 7 7 10 11 12 12 11 13 15 16 17 18 18 18 18 17 18 18 20 20 21 21 21 20 20 20 21 21 22 23 24 23 23 24 25 25 25 25 25 25
4 4 5 6 6 7 9 10 11 11 12 12 14 14 14 16 16 16 17 19 18 18 19 20 21 21 19 20 20 20 20 21 22 22 23 23 23 23 23 24 23 23 24 23
4 4 5 5 5 6 7 9 9 10 12 12 13 12 13 15 15 16 17 18 19 19 19 20 19 19 19 19 20 19 20 21 22 22 22 23 24 23 22 23 24 23 24 23
4 4 4 4 4 6 6 7 8 9 10 10 10 11 12 14 16 16 17 17 17 17 17 18 19 18 18 19 19 19 19 19 20 21 21 21 22 22 22 23 23 23 24 24
5 5 4 4 4 4 5 5 8 8 8 8 9 9 12 14 15 15 16 16 16 16 16 17 18 18 17 18 18 18 17 18 19 19 19 19 20 21 22 22 22 22 23 24
5 6 5 4 3 3 3 5 6 6 6 7 8 10 14 15 15 15 16 15 15 15 16 16 17 16 16 16 16 16 16 17 17 17 18 19 19 20 21 21 22 23 23 24
6 6 6 5 4 3 3 5 5 4 5 7 8 10 14 15 15 15 15 14 15 15 15 15 15 15 14 14 14 15 15 16 16 17 18 19 19 19 20 21 22 22 23 24
5 4 5 4 4 4 5 6 6 6 5 6 8 10 11 11 13 15 15 13 14 14 14 13 13 14 14 14 15 15 15 16 16 18 18 18 19 19 19 21 21 22 23 24
4 5 5 5 5 5 4 4 6 7 6 6 8 9 10 10 12 12 13 14 13 13 13 13 14 15 15 15 15 16 16 16 17 18 17 18 18 19 19 20 21 22 22 23
5 5 5 5 5 6 5 4 6 7 7 7 7 9 9 10 10 13 13 13 13 13 13 13 14 15 15 15 15 15 15 16 16 17 17 17 18 18 19 20 21 21 21 22
6 5 4 4 6 6 6 5 7 8 8 8 8 10 9 10 12 13 13 12 12 13 13 14 15 15 15 14 15 15 15 15 16 16 17 17 17 18 19 20 20 20 20 21
6 6 5 5 6 6 7 7 8 10 8 8 10 11 10 12 12 13 13 13 13 14 14 14 15 15 15 15 15 14 15 15 16 17 17 18 17 18 18 19 20 21 21 21
8 6 6 6 7 7 7 8 8 9 10 10 11 11 11 12 13 13 14 13 13 13 14 14 15 14 15 15 15 15 15 15 15 16 17 17 17 18 18 19 19 20 20 21
8 6 6 6 6 8 8 8 8 9 10 10 11 11 12 13 14 14 14 13 14 15 14 14 15 15 16 16 15 15 15 15 15 15 16 16 17 18 18 18 18 19 20 21
8 7 7 7 7 8 8 8 9 10 11 11 11 12 12 14 14 14 14 14 15 15 14 15 15 16 15 15 14 14 14 15 15 15 16 16 17 17 17 18 18 19 20 21
9 8 8 8 9 9 9 9 10 11 12 12 12 12 13 13 14 14 14 14 15 15 14 15 15 14 14 14 14 14 14 14 14 15 15 16 16 17 17 18 18 19 21 21
10 9 9 9 10 10 11 10 11 13 12 12 13 13 14 14 14 15 15 15 15 15 15 15 14 13 13 13 13 13 13 13 13 14 15 16 17 17 17 18 19 19 20 21
11 10 10 11 12 12 12 12 13 14 14 14 14 14 15 15 14 14 14 14 15 15 15 14 14 13 12 13 12 12 12 12 13 14 15 16 16 17 18 18 19 20 21 21
11 12 12 12 13 13 14 14 14 15 15 14 14 15 15 15 14 14 15 15 14 14 14 14 14 14 14 13 12 12 12 12 13 14 14 15 15 16 17 18 19 20 20 21
13 13 13 13 14 14 15 14 15 15 15 15 15 15 14 15 14 15 16 15 14 14 14 14 14 14 14 13 12 12 11 12 12 13 14 14 15 16 17 18 18 19 20 21
15 15 14 14 15 15 16 15 15 15 16 16 16 16 15 16 15 16 16 15 15 14 14 14 14 14 14 13 12 12 11 12 13 13 14 14 15 15 17 17 18 19 20 21
17 16 16 16 16 16 16 16 16 16 17 17 17 17 16 16 16 16 16 15 15 15 14 14 14 14 13 12 12 12 12 12 13 13 13 14 15 16 17 17 18 19 20 21
17 16 16 17 17 17 17 16 16 17 17 18 18 18 17 16 15 15 14 14 14 14 13 13 13 13 13 12 11 12 12 12 13 13 13 14 14 15 16 18 18 19 20 21
19 18 18 18 17 17 17 17 17 18 18 19 18 18 17 16 15 15 15 15 14 14 13 13 13 12 12 11 11 11 11 12 12 12 12 13 14 15 16 17 18 19 20 21
20 20 19 19 18 18 19 18 18 19 18 18 17 17 16 15 15 16 15 15 14 14 13 12 12 12 11 10 10 10 11 10 11 11 12 13 13 14 15 16 17 19 20 21
21 21 21 20 20 20 19 20 20 19 19 18 17 17 15 15 15 16 16 15 15 14 13 13 12 11 11 10 10 10 9 10 10 10 12 12 12 13 14 16 18 19 20 20

GEFSCGP_500_meanwind_222.txt.gz
Wind_Speed
1 1 3 4 5 6 7 8 9 10 10 12 14 16 16 16 17 16 14 15 15 15 15 16 17 18 18 18 19 19 18 18 17 17 18 18 19 20 21 21 22 22 22 22
2 1 1 3 4 6 7 7 7 8 9 11 12 14 15 15 14 14 14 15 15 16 16 17 17 16 17 17 18 17 15 16 17 16 17 18 19 20 21 21 21 22 21 21
3 2 1 1 4 4 5 6 6 6 7 9 10 11 13 13 13 13 13 13 13 14 14 14 14 14 15 16 16 15 15 15 15 16 17 18 19 20 20 21 21 21 21 20
2 2 1 1 2 3 4 5 5 5 6 6 7 9 9 10 11 11 12 12 12 13 13 13 13 14 15 15 14 14 14 13 14 15 16 17 18 19 19 20 20 21 20 20
4 3 2 1 1 2 3 4 4 5 5 5 6 7 8 9 9 10 11 12 12 13 14 13 12 14 14 14 14 14 12 12 13 15 16 17 17 18 18 18 18 19 19 20
4 3 2 2 2 3 3 4 4 4 5 5 6 7 7 7 9 10 11 10 11 13 14 12 12 13 13 13 14 14 14 13 13 15 16 17 17 18 17 17 17 18 19 20
5 4 3 3 3 3 4 4 4 5 5 5 5 7 8 9 10 10 9 8 9 12 13 13 12 12 13 13 14 15 14 14 15 16 16 17 17 17 16 17 18 18 19 20
5 5 5 4 4 5 4 4 6 6 5 4 6 8 9 10 10 10 9 9 10 11 12 12 12 12 12 14 14 14 14 15 15 16 16 16 15 16 16 17 18 19 19 19
6 5 6 6 5 5 5 5 6 6 6 6 6 7 9 10 9 9 9 9 9 9 10 10 11 10 11 12 13 13 13 14 14 15 15 15 15 16 16 17 17 17 17 17
6 5 5 5 4 5 5 4 4 5 7 8 8 8 10 9 9 9 9 9 9 9 9 9 10 10 11 11 11 11 12 12 13 14 15 16 16 16 16 16 16 16 17 17
5 5 4 4 4 4 4 4 5 6 8 8 8 8 9 9 9 9 10 10 9 9 9 9 9 11 12 11 11 11 12 13 14 15 16 16 16 16 16 15 15 16 16 16
6 5 4 4 4 4 5 5 6 8 9 8 8 9 9 10 10 10 11 11 10 10 10 10 11 11 12 12 12 12 13 13 14 14 15 15 15 15 14 14 14 14 15 16
6 5 4 4 5 5 6 7 7 9 9 9 9 10 10 10 10 10 11 11 10 10 10 10 11 11 11 12 12 13 13 13 13 14 15 15 14 14 14 14 15 16 16 17
6 6 6 5 6 7 7 8 9 9 10 10 10 10 10 10 10 10 10 10 10 9 10 10 10 11 12 12 13 13 13 13 14 14 14 14 13 13 13 15 16 16 17 17
7 7 7 7 7 8 8 8 9 10 10 11 11 11 11 10 10 10 10 10 10 10 11 11 11 12 13 13 14 14 14 14 14 14 13 13 13 13 14 15 16 17 17 17
7 8 9 8 8 8 8 9 10 11 11 12 12 11 10 10 10 11 11 11 11 11 11 12 12 13 14 14 14 14 14 14 14 13 12 12 13 14 14 15 16 16 17 17
9 9 9 8 7 8 9 10 11 11 11 11 11 11 10 11 11 12 12 12 12 11 11 12 12 13 14 14 14 13 13 13 12 12 12 12 13 14 14 15 16 16 17 17
11 11 10 9 9 9 9 10 11 11 11 11 11 11 11 12 12 12 12 12 11 12 11 11 11 12 13 13 13 13 13 12 11 11 12 12 13 14 14 15 16 16 17 17
12 12 12 12 12 11 10 10 10 10 10 11 12 13 13 12 12 12 12 12 12 11 11 11 11 11 12 12 13 12 12 11 11 12 13 13 13 14 15 15 15 16 16 17
13 13 13 13 13 12 11 11 11 11 10 11 12 13 13 13 13 12 12 12 11 11 11 11 11 11 12 12 12 11 11 10 11 11 12 12 13 14 14 15 15 15 16 17
14 14 13 13 13 12 12 12 12 11 11 12 12 13 13 13 12 12 12 12 11 11 12 12 12 12 12 13 13 12 11 11 11 11 12 12 13 13 14 15 15 16 16 17
15 15 14 15 15 14 14 13 12 11 11 12 13 13 13 13 13 13 12 13 13 13 13 12 13 13 13 12 12 12 12 11 11 11 12 12 12 12 14 15 15 16 17 17
16 15 15 15 16 16 15 14 14 13 14 14 14 13 13 13 13 13 12 13 13 13 13 13 13 13 13 13 12 12 12 12 12 11 11 11 12 12 13 14 15 16 18 19
17 17 17 16 16 17 17 16 15 15 16 16 15 14 15 14 13 12 12 13 13 13 13 13 14 14 13 12 12 11 11 11 12 12 11 11 12 12 13 13 15 17 18 19
18 17 17 17 18 18 18 17 16 16 17 16 15 15 15 14 13 13 13 13 13 13 13 13 14 13 12 11 11 11 11 11 11 11 10 11 11 12 12 14 15 17 18 19
18 19 18 18 18 18 17 17 17 16 16 15 15 15 15 14 14 14 14 13 14 14 13 13 13 13 12 11 11 11 11 11 11 11 11 11 12 12 12 14 15 17 18 19

GEFSCGP_500_meanwind_228.txt.gz
Wind_Speed
5 5 5 5 6 7 8 9 9 9 11 13 15 15 15 16 17 17 18 17 17 17 17 16 17 17 16 16 16 17 17 17 18 18 18 19 19 19 21 22 22 22 22 23
4 4 5 5 6 7 8 8 8 9 10 13 14 14 15 16 17 17 18 18 18 18 17 17 17 16 17 16 17 17 17 16 17 17 18 19 19 19 20 21 22 22 22 23
4 3 5 6 6 7 7 8 8 9 10 12 13 14 15 16 16 17 17 18 18 18 18 18 17 17 17 16 16 16 15 15 15 16 16 17 17 18 19 20 21 22 22 22
3 3 5 6 6 6 7 8 8 9 10 10 11 13 13 14 14 15 15 15 16 16 17 17 16 15 15 16 15 16 15 15 15 15 16 18 17 18 19 20 20 21 21 21
3 3 4 4 4 6 6 6 7 8 10 10 11 13 12 13 13 14 14 13 13 14 14 14 14 14 14 14 14 14 14 14 15 15 16 16 16 17 18 19 19 20 20 20
4 4 4 3 3 4 5 6 6 7 9 9 10 11 12 12 12 12 12 12 12 12 13 12 12 12 13 12 12 13 13 13 14 15 15 16 16 17 17 18 19 20 20 21
4 4 4 4 4 4 5 5 6 6 6 8 9 10 11 10 10 10 11 10 9 10 12 12 11 12 12 12 12 12 12 12 13 14 14 15 16 16 17 17 18 18 19 20
4 4 4 5 4 4 5 5 6 7 7 7 8 9 10 10 9 9 9 8 8 9 9 9 10 11 10 9 10 11 11 12 12 13 14 15 16 16 16 16 16 17 18 19
5 4 4 4 5 5 5 6 6 7 8 8 8 8 8 9 8 9 9 7 8 8 9 9 9 9 9 8 9 11 11 12 13 13 14 14 15 15 15 15 16 16 16 17
5 5 5 4 5 5 6 6 7 7 8 8 8 8 9 9 9 9 9 9 9 9 9 8 8 8 8 8 9 10 11 11 12 13 13 14 14 15 16 15 15 15 16 17
5 5 5 5 5 6 7 7 8 8 9 10 10 9 10 11 11 9 9 9 9 8 8 8 8 7 8 8 9 9 10 10 11 11 12 13 13 14 14 15 16 16 16 17
5 5 6 6 6 7 8 8 9 10 10 11 11 11 11 11 11 9 9 9 9 8 8 8 8 8 9 9 8 9 10 10 10 11 11 12 13 13 14 15 16 16 16 17
7 7 8 7 7 7 8 9 10 10 11 12 12 12 12 11 11 11 10 10 10 10 10 10 9 9 10 9 9 9 10 10 11 11 12 13 14 14 15 16 17 17 17 17
8 8 9 8 8 8 9 10 10 11 12 13 12 12 12 12 11 11 11 11 11 11 11 11 10 10 10 9 10 10 10 11 11 12 13 14 14 14 15 16 17 17 17 17
9 9 10 9 9 9 10 11 11 11 12 13 13 12 13 13 12 12 12 11 12 12 11 11 10 9 9 10 10 11 12 12 13 13 14 14 14 14 15 16 16 17 17 18
10 11 10 10 10 11 11 11 11 12 12 12 12 12 12 12 12 12 11 11 11 11 11 10 10 10 10 11 12 12 12 12 13 14 15 14 14 14 15 16 17 17 17 17
11 12 11 10 10 11 11 11 11 12 12 12 11 12 12 11 11 11 11 11 10 11 11 11 11 10 11 11 12 12 13 13 14 14 14 14 13 14 15 16 16 16 16 16
12 12 13 12 12 11 12 12 11 11 11 11 11 11 11 11 11 11 11 11 11 11 11 11 10 10 11 11 12 12 13 14 14 14 13 13 13 13 14 15 15 16 16 16
13 13 13 12 11 11 12 12 11 10 10 11 11 11 11 11 11 11 11 12 12 10 11 11 11 11 11 12 12 13 13 13 13 13 13 13 13 14 14 14 15 15 15 16
14 14 14 14 13 12 12 12 12 12 12 11 11 11 12 12 11 12 11 11 11 11 11 11 11 11 12 13 13 13 13 13 13 13 13 13 14 14 14 14 14 14 15 16
15 15 14 14 14 14 14 13 13 13 13 12 12 12 12 12 12 12 11 11 11 10 11 12 12 12 12 13 13 13 13 13 13 13 13 13 13 13 13 13 14 14 15 16
16 16 15 15 15 15 15 14 14 14 13 13 13 12 12 12 13 13 12 12 11 12 12 13 13 13 13 13 14 14 14 13 13 13 13 13 13 13 13 13 14 14 15 17
18 17 17 16 16 15 15 16 15 15 15 15 14 13 13 14 13 13 13 13 13 13 13 13 14 14 15 15 15 15 14 13 13 13 13 13 13 14 14 13 14 15 15 17
21 19 19 18 18 17 17 17 17 17 16 15 15 15 15 14 14 14 14 14 14 14 14 14 15 15 15 15 15 15 14 13 12 13 13 13 14 14 14 14 14 15 16 18
22 21 21 20 20 20 19 19 18 18 17 17 17 17 16 16 16 16 16 15 15 14 15 16 16 16 16 15 15 14 14 13 13 13 13 13 14 14 14 14 14 15 16 18
22 22 22 21 21 21 21 21 20 19 19 19 18 17 17 17 17 16 16 15 15 15 15 15 15 15 16 15 15 14 14 13 13 13 13 14 14 13 13 14 14 15 17 18

GEFSCGP_500_meanwind_234.txt.gz
Wind_Speed
6 6 6 6 6 7 7 7 8 9 10 11 11 12 13 13 15 16 16 17 17 18 19 19 19 18 18 18 19 19 19 20 20 19 19 19 20 20 20 21 21 21 21 21
6 6 6 6 6 6 6 7 8 9 10 11 11 12 13 13 13 14 15 16 18 18 19 19 19 19 18 19 19 20 20 19 19 20 19 19 19 19 19 21 20 20 21 21
5 5 5 5 5 5 6 6 7 9 10 10 10 10 11 12 13 13 14 15 16 18 19 18 18 18 18 19 19 19 19 19 19 19 19 19 18 18 18 18 18 20 20 20
4 5 5 4 5 5 5 6 6 7 8 9 9 9 11 11 12 13 14 14 14 15 17 17 16 16 17 17 18 18 18 17 17 17 18 18 18 18 18 18 18 18 19 20
4 4 3 3 4 4 5 5 5 6 7 8 8 8 10 10 10 11 12 13 13 13 14 15 15 14 15 16 16 16 16 15 15 15 16 17 17 17 17 17 17 18 19 20
4 4 3 3 4 4 5 5 5 5 6 7 8 8 9 10 10 10 10 11 11 12 13 14 14 14 14 14 14 14 14 14 14 15 15 15 16 16 17 17 18 19 20 20
5 5 4 3 3 4 4 4 4 4 5 7 9 9 10 10 10 10 10 11 10 10 11 12 12 13 13 13 13 13 14 14 14 14 15 16 16 17 17 19 19 20 20 19
5 5 5 4 3 4 4 4 4 5 6 7 9 9 10 10 10 10 10 9 10 10 10 10 11 12 12 13 13 13 13 13 14 14 15 16 17 17 18 19 19 18 17 16
5 6 6 5 4 4 4 4 5 6 7 7 8 10 10 10 10 9 9 9 9 9 9 9 9 10 11 13 14 14 13 13 14 14 15 16 17 18 18 17 17 16 16 16
6 6 6 6 5 4 4 5 5 6 7 7 8 9 9 9 9 9 8 9 9 8 8 8 9 10 11 12 13 13 13 13 14 15 15 16 17 17 17 16 15 14 15 16
6 6 6 5 5 6 6 6 6 6 7 7 8 9 10 10 9 9 8 8 8 7 7 8 9 9 10 11 12 12 14 15 15 16 15 15 16 16 15 14 14 15 16 17
7 6 6 6 6 6 7 7 7 8 9 9 9 11 10 10 9 8 7 7 7 7 7 8 8 9 10 11 12 12 12 13 13 13 14 15 15 15 14 14 15 16 17 17
6 6 6 7 7 7 7 7 7 8 9 9 9 10 11 10 9 9 8 8 8 8 8 9 9 9 10 10 10 10 12 12 12 12 13 14 14 12 12 14 15 15 16 16
8 7 8 8 8 8 8 8 8 9 9 10 9 10 10 10 9 10 9 9 9 9 9 9 9 9 9 9 9 10 11 11 12 12 12 12 11 11 12 14 15 15 15 15
10 9 9 9 9 9 9 9 9 9 10 10 10 10 10 10 10 10 10 10 10 9 9 9 9 8 9 9 9 10 11 11 11 11 11 11 10 11 13 13 14 14 15 16
10 9 9 10 10 10 11 11 10 10 11 11 11 11 10 10 10 10 10 10 9 10 9 9 8 8 8 9 9 10 10 11 11 11 11 10 10 12 13 13 14 15 15 16
12 11 11 11 11 11 11 11 11 11 11 11 11 12 11 11 10 10 9 9 9 9 9 9 9 9 8 9 9 10 10 11 11 11 11 11 11 12 13 14 14 15 15 16
13 13 12 12 12 12 12 12 12 12 11 12 12 11 11 10 10 9 9 9 9 9 9 9 9 9 9 9 10 11 11 11 11 11 11 11 11 12 13 14 14 14 15 15
14 13 13 13 13 13 13 12 12 12 12 12 12 11 11 10 10 10 10 10 10 10 10 10 10 10 10 10 10 11 11 11 11 11 11 11 12 12 13 13 13 14 14 14
15 15 14 14 14 14 14 13 12 12 13 12 12 11 11 10 11 11 12 11 11 11 11 10 11 11 11 11 11 11 12 12 12 11 11 12 12 12 12 12 13 13 13 13
17 16 16 16 15 15 15 14 13 13 14 13 13 13 13 12 12 13 12 12 12 12 11 12 11 11 12 12 12 12 12 12 12 12 12 13 13 12 12 13 13 13 13 13
18 18 18 17 16 17 16 15 15 15 15 14 14 14 15 14 14 14 14 14 13 12 12 12 12 12 12 12 13 13 13 13 13 12 12 12 12 12 12 13 12 11 12 13
19 19 19 19 19 18 18 17 17 16 16 16 16 15 15 16 15 15 15 14 14 13 13 13 13 13 13 13 14 14 14 13 13 12 12 12 13 12 12 12 11 12 12 13
21 21 21 20 20 20 19 19 19 18 18 18 18 17 17 16 16 15 15 15 15 14 14 14 14 14 14 14 14 14 14 14 14 13 13 13 12 12 12 12 12 12 13 14
23 22 22 22 22 22 22 22 21 20 20 19 19 19 19 18 18 18 17 16 16 15 15 15 15 16 15 15 15 14 14 14 14 13 13 13 12 12 12 12 12 13 14 14
24 23 23 24 24 24 23 23 23 22 21 21 21 21 20 20 20 19 18 17 16 16 16 16 16 17 16 15 15 14 15 15 14 13 13 13 13 12 12 13 13 14 14 15